Simultaneous Nadir Overpasses (SNOs) Predictions

Prediction of SNOs between NPP and TERRA Satellite Orbit:

Table of predicted SNOs for the next 14.0 days since TLE Epoch: 5/21/2021
Index Date (NPP) Time (NPP) Lat,Lon (NPP) SZA (NPP ) Date (TERRA) Time (TERRA) Lat,Lon (TERRA) SZA (TERRA ) Distance(km) Time Diff (sec)
1 05/24/2021 09:48:06 68.55, 31.26 47.59 05/24/2021 09:48:41 68.54, 31.20 47.59 2.55 35
2 05/24/2021 10:38:48 -68.46,-161.30 132.51 05/24/2021 10:38:11 -68.44,-161.30 132.53 2.47 37
3 05/27/2021 01:14:25 -68.98, -20.86 132.43 05/27/2021 01:15:36 -68.87, -20.15 132.55 30.48 71
4 05/27/2021 02:05:03 68.54, 147.04 47.12 05/27/2021 02:05:07 68.53, 147.07 47.11 1.68 4
5 05/27/2021 02:55:44 -68.39, -45.45 133.04 05/27/2021 02:54:38 -68.37, -45.49 133.06 2.68 66
6 05/29/2021 17:31:15 -68.60, 95.42 133.25 05/29/2021 17:32:07 -68.59, 95.37 133.26 2.43 52
7 05/29/2021 18:21:58 68.48, -97.12 46.64 05/29/2021 18:21:33 68.46, -97.13 46.62 2.40 25
8 05/29/2021 19:12:25 -67.58, 71.33 134.28 05/29/2021 19:11:16 -67.64, 69.54 134.21 76.48 69
9 06/01/2021 08:57:42 69.39, 42.78 47.19 06/01/2021 08:58:50 69.33, 44.57 47.12 70.49 68
10 06/01/2021 09:48:11 -68.59,-148.81 133.63 06/01/2021 09:48:32 -68.57,-148.77 133.66 3.07 21
11 06/01/2021 10:38:54 68.43, 18.72 46.20 06/01/2021 10:37:59 68.44, 18.73 46.22 1.58 55
12 06/04/2021 01:14:25 68.64, 159.58 46.10 06/04/2021 01:15:28 68.64, 159.57 46.09 0.13 63
13 06/04/2021 02:05:07 -68.54, -32.97 134.02 06/04/2021 02:04:58 -68.55, -32.91 134.01 2.57 9
14 06/04/2021 02:55:43 68.00, 135.03 45.44 06/04/2021 02:54:32 68.03, 134.11 45.47 38.26 71



Historial Predications of SNOs between NPP and TERRA
